Regional Weather Roundup
Issued by NWS Green Bay, WI

Home | Current Version | Previous Version | Text Only | Print | Product List | Glossary On
Versions: 1 2 3 4 5 6 7 8 9 10 11 12 13 14 15 16 17 18 19 20 21 22 23 24 25 26 27 28 29 30 31 32 33 34 35 36 37 38 39 40 41 42 43 44 45 46 47 48 49 50
000
ASUS43 KGRB 311711
RWRGRB

NORTH-CENTRAL AND NORTHEAST WISCONSIN REGIONAL WEATHER ROUNDUP
NATIONAL WEATHER SERVICE GREEN BAY WI
1200 PM CDT FRI JUL 31 2015

WIZ005-009-010>012-018-019-311800-
NORTH CENTRAL WISCONSIN

CITY           SKY/WX    TMP DP  RH WIND       PRES   REMARKS
IRONWOOD       MOSUNNY   72  55  56 W14G26    29.92S
MANITOWISH WTR PTSUNNY   71  54  55 NW17G23   29.95S
ARBOR VITAE    MOSUNNY   72  55  54 NW10G20   29.96R
EAGLE RIVER    MOSUNNY   73  50  44 W15G23    29.94S
LAND O LAKES   MOSUNNY   73  51  45 NW12      29.94S
RHINELANDER    PTSUNNY   75  51  43 W15G23    29.96F
PHILLIPS       MOSUNNY   73  55  52 NW8G18    29.98S
ANTIGO         PTSUNNY   73  53  49 NW15G22   29.96S
TOMAHAWK       MOSUNNY   73  54  51 W14G20    29.97S
MERRILL        NOT AVBL
$$

WIZ013-073-311800-
NORTHEAST WISCONSIN

CITY           SKY/WX    TMP DP  RH WIND       PRES   REMARKS
IRON MOUNTAIN  MOSUNNY   77  52  41 NW17G25   29.88S
MARINETTE      MOSUNNY   77  54  44 NW12G20   29.86F
OCONTO         PTSUNNY   81  56  42 W17G25    29.88S
$$

WIZ017-030-035>037-045-311800-
CENTRAL WISCONSIN

CITY           SKY/WX    TMP DP  RH WIND       PRES   REMARKS
MEDFORD        PTSUNNY   73  54  51 NW15G22   30.00S
WAUSAU         MOSUNNY   77  49  37 NW16G30   29.96S
MOSINEE        MOSUNNY   75  52  43 NW20G29   29.99S
MARSHFIELD     MOSUNNY   77  49  37 NW21G32   30.00F
WISC RAPIDS    PTSUNNY   77  49  37 NW14G26   30.00F
STEVENS POINT  PTSUNNY   74  52  45 NW14G22   29.98S
WAUPACA        MOSUNNY   80  49  33 W16G25    29.96S
SHAWANO        MOSUNNY   80  54  40 NW15G21   29.92S
CLINTONVILLE   MOSUNNY   79  48  34 NW14G23   29.93S
$$

WIZ038-039-048-051-311800-
FOX VALLEY

CITY           SKY/WX    TMP DP  RH WIND       PRES   REMARKS
NWS GREEN BAY  MOSUNNY   79  59  50 W16G25    29.91F
APPLETON       PTSUNNY   77  46  33 W21G29    29.95S
OSHKOSH        MOSUNNY   79  51  37 W23G31    29.94F
FOND DU LAC    SUNNY     80  50  34 NW20G29   29.96S
$$

WIZ022-050-052-311800-
EAST CENTRAL WISCONSIN

CITY           SKY/WX    TMP DP  RH WIND       PRES   REMARKS
STURGEON BAY   MOSUNNY   77  55  47 W15G23    29.91S
MANITOWOC      MOSUNNY   81  56  42 MISG      29.91S
SHEBOYGAN      MOSUNNY   79  54  41 W16G29    29.93S
$$

LMZ563-521-522-541>543-311800-
LAKESHORE

STATION/POSITION TIME  TEMP    WIND        PRES    VSBY  WAVE
                       AIR SEA DIR/SP/G                  HT/PER
                 (UTC) (F)     (DEG/KT/KT) (MB)    (MI)  (FT/S)
SHEBOYGAN LKSHOR 1700   77     300/ 16/ 21 1013.3R
KEWAUNEE LKSHORE 1600   76     290/  7/ 16 1011.8R
ALGOMA MARINA    1612          300/ 11/ 17   N/A
NORTHPORT PIER   1600   73     300/  8/ 13 1011.2S
N MID LAKE BUOY  1650   69 68  250/ 10/ 12 1010.5S         2/ 4
S GREEN BAY BUOY 1700   72 71  280/ 12/ 14 1013.5F
SISTER BAY LKSHO 1644   77     300/ 11/ 13   N/A
CHAMBERS ISLAND  1600   75     230/  3/  8 1011.5S
MENOMINEE LKSHOR 1600   76     290/ 11/ 16 1012.5F
$$


USA.gov is the U.S. government's official web portal to all federal, state and local government web resources and services.